QPF
0.00 0.00 0.00 0.00 0.00 0.00 0.00 0.00 0.00 0.00 0.00 0.00 0.00 0.00 0.00 0.00 0.00 0.00 0.00 0.00 0.00 0.00 0.00 0.00 0.00 0.00 0.00 0.00 0.00 0.00 0.00 0.00 0.00 0.00 0.00 0.00 0.00 0.00 0.00 0.00 0.00 0.00 0.00 0.00 0.00 0.00 0.00
0.00 0.00 0.00 0.00 0.00 0.00 0.00 0.00 0.00 0.00 0.00 0.00 0.00 0.00 0.00 0.00 0.00 0.00 0.00 0.00 0.00 0.00 0.00 0.00 0.00 0.00 0.00 0.00 0.00 0.00 0.00 0.00 0.00 0.00 0.00 0.00 0.00 0.00 0.00 0.00 0.00 0.00 0.00 0.00 0.00 0.00 0.00
0.00 0.00 0.00 0.00 0.00 0.00 0.00 0.00 0.00 0.00 0.00 0.00 0.00 0.00 0.00 0.00 0.00 0.00 0.00 0.00 0.00 0.00 0.00 0.00 0.00 0.00 0.00 0.00 0.00 0.00 0.00 0.00 0.00 0.00 0.00 0.00 0.00 0.00 0.00 0.00 0.00 0.00 0.00 0.00 0.00 0.00 0.00
0.00 0.00 0.00 0.00 0.00 0.00 0.00 0.00 0.00 0.00 0.00 0.00 0.00 0.00 0.00 0.00 0.00 0.00 0.00 0.00 0.00 0.00 0.00 0.00 0.00 0.00 0.00 0.00 0.00 0.00 0.00 0.00 0.00 0.00 0.00 0.00 0.00 0.00 0.00 0.00 0.00 0.00 0.00 0.00 0.00 0.00 0.00
0.00 0.00 0.00 0.00 0.00 0.00 0.00 0.00 0.00 0.00 0.00 0.00 0.00 0.00 0.00 0.00 0.00 0.00 0.00 0.00 0.00 0.00 0.00 0.00 0.00 0.00 0.00 0.00 0.00 0.00 0.00 0.00 0.00 0.00 0.00 0.00 0.00 0.00 0.00 0.00 0.00 0.00 0.00 0.00 0.00 0.00 0.00
0.00 0.00 0.00 0.00 0.00 0.00 0.00 0.00 0.00 0.00 0.00 0.00 0.00 0.00 0.00 0.00 0.00 0.00 0.00 0.00 0.00 0.00 0.00 0.00 0.00 0.00 0.00 0.00 0.00 0.00 0.00 0.00 0.00 0.00 0.00 0.00 0.00 0.00 0.00 0.00 0.00 0.00 0.00 0.00 0.00 0.00 0.00
0.00 0.00 0.00 0.00 0.00 0.00 0.00 0.00 0.00 0.00 0.00 0.00 0.00 0.00 0.00 0.00 0.00 0.00 0.00 0.00 0.00 0.00 0.00 0.00 0.00 0.00 0.00 0.00 0.00 0.00 0.00 0.00 0.00 0.00 0.00 0.00 0.00 0.00 0.00 0.00 0.00 0.00 0.00 0.00 0.00 0.00 0.00
0.00 0.00 0.00 0.00 0.00 0.00 0.00 0.00 0.00 0.00 0.00 0.00 0.00 0.00 0.00 0.00 0.00 0.00 0.00 0.00 0.00 0.00 0.00 0.00 0.00 0.00 0.00 0.00 0.00 0.00 0.00 0.00 0.00 0.00 0.00 0.00 0.00 0.00 0.00 0.00 0.00 0.00 0.00 0.00 0.00 0.00 0.00
0.00 0.00 0.00 0.00 0.00 0.00 0.00 0.00 0.00 0.00 0.00 0.00 0.00 0.00 0.00 0.00 0.00 0.00 0.00 0.00 0.00 0.00 0.00 0.00 0.00 0.00 0.00 0.00 0.00 0.00 0.00 0.00 0.00 0.00 0.00 0.00 0.00 0.00 0.00 0.00 0.00 0.00 0.00 0.00 0.00 0.00 0.00
0.00 0.00 0.00 0.00 0.00 0.00 0.00 0.00 0.00 0.00 0.00 0.00 0.00 0.00 0.00 0.00 0.00 0.00 0.00 0.00 0.00 0.00 0.00 0.00 0.00 0.00 0.00 0.00 0.00 0.00 0.00 0.00 0.00 0.00 0.00 0.00 0.00 0.00 0.00 0.00 0.00 0.00 0.00 0.00 0.00 0.00 0.00
0.00 0.00 0.00 0.00 0.00 0.00 0.00 0.00 0.00 0.00 0.00 0.00 0.00 0.00 0.01 0.01 0.00 0.00 0.00 0.00 0.00 0.00 0.00 0.00 0.00 0.00 0.00 0.00 0.00 0.00 0.00 0.00 0.00 0.00 0.00 0.00 0.00 0.00 0.00 0.00 0.00 0.00 0.00 0.00 0.00 0.00 0.00
0.00 0.00 0.00 0.00 0.00 0.00 0.00 0.00 0.00 0.00 0.00 0.00 0.00 0.00 0.02 0.00 0.00 0.00 0.00 0.00 0.00 0.00 0.00 0.00 0.00 0.00 0.00 0.00 0.00 0.00 0.00 0.00 0.00 0.00 0.00 0.00 0.00 0.00 0.00 0.00 0.00 0.00 0.00 0.00 0.00 0.00 0.00
0.00 0.00 0.00 0.00 0.00 0.00 0.00 0.00 0.00 0.00 0.01 0.01 0.00 0.01 0.02 0.00 0.00 0.00 0.00 0.00 0.02 0.01 0.00 0.00 0.00 0.00 0.00 0.00 0.00 0.00 0.00 0.00 0.00 0.00 0.00 0.00 0.00 0.00 0.00 0.00 0.00 0.00 0.00 0.00 0.00 0.00 0.00
0.01 0.01 0.01 0.01 0.00 0.00 0.01 0.01 0.01 0.01 0.01 0.00 0.01 0.01 0.01 0.00 0.00 0.00 0.01 0.05 0.06 0.00 0.00 0.00 0.00 0.00 0.00 0.00 0.00 0.00 0.00 0.00 0.00 0.00 0.00 0.00 0.00 0.00 0.00 0.00 0.00 0.00 0.00 0.00 0.00 0.00 0.00
0.02 0.02 0.01 0.00 0.00 0.00 0.01 0.01 0.01 0.01 0.00 0.00 0.02 0.00 0.00 0.00 0.00 0.01 0.05 0.09 0.02 0.00 0.00 0.00 0.00 0.00 0.00 0.00 0.00 0.00 0.00 0.00 0.00 0.00 0.00 0.00 0.00 0.00 0.00 0.00 0.00 0.00 0.00 0.00 0.00 0.00 0.01
0.06 0.01 0.00 0.00 0.00 0.00 0.00 0.00 0.00 0.01 0.01 0.01 0.01 0.01 0.00 0.00 0.00 0.04 0.15 0.09 0.00 0.00 0.00 0.00 0.00 0.00 0.00 0.00 0.01 0.00 0.00 0.00 0.00 0.00 0.00 0.00 0.00 0.00 0.00 0.00 0.00 0.00 0.00 0.00 0.02 0.02 0.00
0.03 0.01 0.00 0.00 0.00 0.00 0.00 0.00 0.00 0.01 0.01 0.01 0.01 0.01 0.00 0.00 0.02 0.12 0.14 0.04 0.01 0.00 0.00 0.02 0.03 0.03 0.01 0.00 0.02 0.02 0.01 0.00 0.00 0.00 0.00 0.00 0.02 0.00 0.00 0.00 0.00 0.00 0.00 0.01 0.03 0.02 0.01
0.03 0.01 0.00 0.00 0.00 0.00 0.00 0.00 0.00 0.01 0.01 0.00 0.02 0.02 0.00 0.00 0.03 0.06 0.05 0.03 0.01 0.01 0.01 0.04 0.08 0.06 0.02 0.01 0.06 0.06 0.02 0.00 0.00 0.00 0.01 0.01 0.10 0.03 0.00 0.00 0.00 0.00 0.00 0.01 0.04 0.01 0.01
0.01 0.00 0.00 0.00 0.00 0.00 0.00 0.00 0.00 0.00 0.01 0.01 0.01 0.02 0.01 0.02 0.07 0.06 0.04 0.04 0.05 0.07 0.04 0.04 0.07 0.05 0.02 0.05 0.10 0.05 0.01 0.00 0.00 0.00 0.04 0.04 0.16 0.08 0.04 0.01 0.01 0.01 0.01 0.02 0.04 0.04 0.02
0.00 0.00 0.00 0.00 0.00 0.00 0.00 0.00 0.00 0.00 0.01 0.00 0.01 0.02 0.01 0.03 0.05 0.12 0.13 0.13 0.12 0.09 0.14 0.18 0.18 0.12 0.18 0.16 0.11 0.07 0.02 0.00 0.00 0.00 0.02 0.07 0.12 0.04 0.02 0.00 0.00 0.01 0.01 0.01 0.03 0.04 0.02
0.00 0.00 0.00 0.00 0.00 0.00 0.00 0.00 0.00 0.00 0.00 0.00 0.01 0.01 0.03 0.06 0.09 0.16 0.15 0.22 0.19 0.13 0.15 0.25 0.34 0.37 0.31 0.28 0.17 0.15 0.08 0.05 0.07 0.10 0.13 0.30 0.25 0.13 0.09 0.07 0.06 0.04 0.03 0.02 0.03 0.03 0.03
0.00 0.00 0.00 0.00 0.00 0.00 0.00 0.00 0.00 0.00 0.00 0.00 0.00 0.01 0.01 0.02 0.03 0.03 0.06 0.07 0.08 0.06 0.08 0.06 0.09 0.10 0.09 0.16 0.26 0.21 0.22 0.24 0.26 0.16 0.13 0.16 0.17 0.11 0.11 0.08 0.06 0.06 0.05 0.03 0.02 0.02 0.02
0.00 0.00 0.00 0.00 0.00 0.00 0.00 0.00 0.00 0.01 0.00 0.00 0.00 0.00 0.00 0.00 0.00 0.00 0.01 0.01 0.01 0.03 0.03 0.05 0.05 0.07 0.06 0.09 0.12 0.14 0.11 0.15 0.15 0.14 0.17 0.19 0.17 0.14 0.11 0.06 0.05 0.05 0.03 0.02 0.02 0.02 0.02
0.00 0.00 0.00 0.00 0.00 0.00 0.00 0.00 0.01 0.00 0.00 0.00 0.00 0.00 0.00 0.00 0.00 0.00 0.00 0.00 0.00 0.01 0.02 0.01 0.01 0.03 0.04 0.08 0.07 0.07 0.04 0.03 0.02 0.03 0.05 0.08 0.09 0.10 0.09 0.07 0.07 0.04 0.02 0.02 0.02 0.02 0.01
0.00 0.00 0.00 0.00 0.00 0.00 0.00 0.00 0.00 0.00 0.00 0.00 0.00 0.00 0.00 0.00 0.00 0.00 0.00 0.00 0.00 0.00 0.01 0.03 0.02 0.03 0.04 0.04 0.04 0.03 0.01 0.00 0.00 0.00 0.00 0.01 0.03 0.05 0.05 0.04 0.04 0.03 0.02 0.02 0.01 0.01 0.01
0.00 0.00 0.00 0.00 0.00 0.00 0.00 0.00 0.00 0.00 0.00 0.00 0.00 0.00 0.00 0.00 0.00 0.00 0.00 0.00 0.00 0.00 0.00 0.01 0.00 0.00 0.03 0.06 0.04 0.01 0.01 0.00 0.00 0.00 0.00 0.00 0.00 0.01 0.02 0.02 0.02 0.02 0.01 0.01 0.00 0.00 0.00
0.00 0.00 0.00 0.00 0.00 0.00 0.00 0.00 0.00 0.00 0.00 0.00 0.00 0.00 0.00 0.00 0.00 0.00 0.00 0.00 0.00 0.00 0.00 0.00 0.00 0.00 0.00 0.02 0.01 0.01 0.01 0.00 0.00 0.00 0.00 0.00 0.00 0.00 0.00 0.01 0.01 0.01 0.00 0.00 0.00 0.00 0.00
0.00 0.00 0.00 0.00 0.00 0.00 0.00 0.00 0.00 0.00 0.00 0.00 0.00 0.00 0.00 0.00 0.00 0.00 0.00 0.00 0.00 0.00 0.00 0.00 0.00 0.00 0.00 0.00 0.00 0.00 0.00 0.00 0.00 0.00 0.00 0.00 0.00 0.00 0.00 0.00 0.00 0.00 0.00 0.00 0.00 0.00 0.00
0.00 0.00 0.00 0.00 0.00 0.00 0.00 0.00 0.00 0.00 0.00 0.00 0.00 0.00 0.00 0.00 0.00 0.00 0.00 0.00 0.00 0.00 0.00 0.00 0.00 0.00 0.00 0.00 0.00 0.00 0.00 0.00 0.00 0.00 0.00 0.00 0.00 0.00 0.00 0.00 0.00 0.00 0.00 0.00 0.00 0.00 0.00
MSLP
1023.13 1022.93 1022.67 1022.38 1022.10 1021.84 1021.53 1021.24 1020.99 1020.74 1020.43 1020.02 1019.60 1019.23 1018.82 1018.49 1018.10 1017.75 1017.25 1016.66 1016.03 1015.42 1014.92 1014.54 1014.40 1014.39 1014.31 1014.02 1011.75 1010.44 1010.26 1010.55 1011.03 1011.31 1011.53 1011.80 1011.85 1012.30 1012.25 1012.50 1012.37 1012.18 1011.67 1011.22 1010.96 1010.65 1010.12
1023.28 1023.02 1022.73 1022.46 1022.19 1021.87 1021.50 1021.15 1020.82 1020.60 1020.28 1019.90 1019.50 1019.08 1018.74 1018.29 1017.81 1017.35 1016.75 1016.16 1015.51 1014.75 1014.27 1014.06 1013.72 1013.68 1014.05 1013.16 1010.25 1010.47 1010.27 1010.50 1010.88 1011.12 1011.33 1011.46 1011.48 1011.52 1011.81 1012.01 1012.18 1011.51 1011.40 1011.14 1010.99 1010.59 1010.19
1022.99 1022.78 1022.57 1022.39 1022.19 1021.87 1021.54 1021.19 1020.81 1020.45 1020.15 1019.78 1019.39 1019.04 1018.73 1018.36 1017.86 1017.30 1016.73 1016.07 1015.29 1014.48 1013.97 1013.59 1013.22 1013.71 1013.49 1011.00 1010.22 1010.25 1010.55 1010.48 1010.58 1010.66 1010.79 1010.90 1010.86 1011.31 1011.70 1011.77 1011.34 1011.40 1011.45 1011.16 1010.74 1010.00 1009.61
1022.84 1022.67 1022.48 1022.27 1021.97 1021.67 1021.42 1021.12 1020.78 1020.46 1020.12 1019.81 1019.35 1018.87 1018.52 1018.09 1017.59 1017.05 1016.42 1015.61 1014.78 1013.90 1013.42 1012.98 1013.10 1013.52 1012.39 1010.19 1010.24 1010.23 1010.27 1010.36 1010.48 1010.42 1010.47 1010.50 1010.74 1011.26 1011.48 1011.29 1011.29 1011.62 1011.57 1011.25 1010.06 1009.69 1009.17
1022.99 1022.74 1022.56 1022.26 1021.90 1021.59 1021.23 1020.88 1020.55 1020.27 1019.91 1019.48 1019.15 1018.77 1018.29 1017.83 1017.27 1016.61 1015.86 1014.92 1013.59 1013.05 1012.73 1012.89 1013.34 1013.33 1011.38 1009.96 1010.25 1010.05 1010.08 1010.04 1010.18 1010.44 1010.57 1010.58 1010.85 1011.29 1011.52 1011.78 1011.80 1011.76 1011.31 1011.11 1010.52 1009.64 1009.33
1023.03 1022.70 1022.41 1022.15 1021.82 1021.52 1021.20 1020.91 1020.55 1020.15 1019.69 1019.19 1018.78 1018.37 1017.96 1017.54 1017.01 1016.38 1015.49 1014.06 1012.62 1012.84 1012.80 1012.96 1013.13 1013.46 1011.19 1010.27 1010.03 1010.09 1009.98 1010.21 1010.29 1010.48 1010.98 1011.15 1011.53 1011.70 1011.96 1011.92 1011.04 1011.04 1011.50 1011.25 1010.88 1010.16 1009.87
1022.83 1022.56 1022.25 1021.91 1021.58 1021.12 1020.62 1020.34 1020.01 1019.71 1019.34 1018.93 1018.45 1018.22 1017.80 1017.28 1016.67 1016.14 1015.41 1014.42 1013.86 1013.49 1013.32 1013.55 1012.30 1011.53 1010.99 1010.34 1010.04 1009.87 1009.86 1010.17 1010.43 1010.68 1011.01 1011.23 1011.64 1011.26 1010.28 1010.47 1010.48 1010.68 1010.91 1010.86 1010.79 1010.15 1010.06
1022.54 1022.33 1021.88 1021.60 1021.16 1020.80 1020.44 1020.07 1019.74 1019.37 1018.99 1018.61 1018.23 1017.82 1017.42 1016.92 1016.54 1016.01 1015.85 1016.08 1016.14 1016.30 1014.13 1012.95 1011.08 1011.12 1010.73 1010.73 1010.70 1009.75 1009.88 1010.41 1010.36 1010.52 1011.01 1011.70 1010.93 1009.92 1010.18 1010.51 1010.88 1010.94 1010.93 1010.70 1010.70 1010.05 1010.30
1022.15 1021.82 1021.59 1021.26 1020.96 1020.54 1020.22 1019.76 1019.19 1018.86 1018.56 1018.25 1017.98 1017.64 1017.10 1016.48 1016.07 1016.02 1016.39 1016.22 1016.31 1016.15 1015.12 1011.79 1011.17 1010.68 1010.12 1010.32 1010.03 1009.74 1009.94 1009.92 1010.08 1010.52 1010.67 1010.73 1009.87 1009.57 1010.07 1010.57 1010.93 1010.87 1010.90 1010.55 1010.82 1010.76 1010.66
1021.73 1021.54 1021.24 1020.91 1020.57 1020.10 1019.91 1019.61 1019.14 1018.82 1018.37 1017.94 1017.54 1017.26 1016.93 1016.47 1016.15 1016.31 1016.22 1016.15 1016.09 1015.88 1014.79 1011.51 1010.87 1010.24 1010.27 1010.14 1009.77 1009.30 1009.49 1009.79 1010.12 1010.17 1010.50 1010.54 1009.65 1009.75 1009.99 1010.16 1010.34 1010.52 1010.03 1010.43 1011.06 1011.73 1012.11
1021.59 1021.31 1021.09 1020.73 1020.42 1020.07 1019.50 1019.23 1019.04 1018.17 1017.78 1017.64 1017.20 1016.99 1016.75 1016.40 1016.23 1016.04 1016.15 1016.03 1016.06 1016.13 1014.69 1010.70 1009.86 1009.73 1009.83 1010.27 1009.86 1009.47 1009.56 1009.69 1009.90 1010.03 1010.39 1009.54 1009.45 1009.45 1009.54 1009.21 1009.59 1009.83 1010.05 1010.81 1011.61 1012.35 1013.01
1021.37 1021.14 1020.75 1020.42 1020.03 1019.49 1019.10 1018.89 1018.20 1017.69 1017.42 1017.14 1016.78 1016.60 1016.45 1015.97 1016.27 1015.71 1015.79 1016.01 1016.25 1016.11 1012.67 1010.03 1009.70 1009.70 1009.95 1009.75 1009.58 1009.74 1009.86 1009.79 1010.14 1010.25 1010.11 1009.63 1009.40 1009.21 1008.83 1008.82 1009.17 1009.85 1010.64 1011.63 1012.56 1013.27 1013.87
1020.98 1020.82 1020.50 1020.11 1019.71 1019.20 1018.82 1018.16 1017.76 1017.33 1017.01 1016.59 1016.41 1016.30 1016.11 1016.10 1015.78 1015.78 1015.88 1016.12 1015.71 1014.05 1010.78 1009.85 1009.68 1009.69 1009.80 1009.79 1009.65 1009.64 1010.00 1010.24 1010.35 1010.61 1010.31 1009.73 1009.16 1008.70 1008.69 1009.23 1009.61 1010.04 1011.02 1012.65 1013.51 1014.06 1013.92
1020.77 1020.56 1020.25 1019.90 1019.38 1018.93 1018.71 1018.19 1017.54 1016.86 1016.32 1015.98 1015.68 1015.39 1015.32 1014.93 1014.84 1015.35 1015.97 1015.71 1014.28 1011.07 1010.35 1009.37 1009.66 1009.78 1009.84 1009.45 1009.42 1009.61 1009.85 1009.98 1009.72 1009.99 1010.21 1010.01 1009.24 1008.78 1008.67 1008.83 1009.13 1010.12 1010.85 1012.19 1012.88 1013.84 1014.34
1020.59 1020.48 1020.23 1019.78 1019.67 1019.32 1018.81 1018.39 1017.73 1017.11 1016.60 1015.78 1014.95 1014.95 1014.91 1013.98 1014.14 1015.08 1015.33 1013.67 1011.31 1010.28 1009.69 1009.47 1009.75 1009.90 1009.67 1009.32 1009.62 1009.71 1009.77 1009.38 1008.78 1009.12 1009.87 1009.99 1009.60 1008.96 1009.06 1009.30 1009.74 1010.93 1011.26 1011.47 1012.35 1013.58 1015.05
1020.70 1020.59 1020.48 1020.19 1019.95 1019.56 1019.11 1018.38 1017.79 1017.16 1016.46 1015.85 1015.06 1014.52 1014.30 1014.18 1014.16 1014.69 1014.20 1011.57 1010.92 1009.85 1009.29 1009.41 1009.63 1009.52 1009.44 1009.17 1009.69 1009.65 1009.16 1008.30 1008.23 1007.97 1008.37 1009.07 1009.71 1009.59 1010.01 1010.24 1011.00 1011.13 1011.53 1012.18 1012.77 1013.70 1015.30
1021.26 1020.84 1020.54 1020.42 1020.08 1019.76 1019.20 1018.59 1017.93 1017.28 1016.43 1015.78 1015.16 1014.55 1014.42 1014.47 1014.60 1014.58 1012.80 1011.03 1010.41 1009.81 1009.31 1009.36 1008.65 1008.50 1008.65 1008.64 1008.48 1008.66 1008.06 1007.55 1007.41 1007.78 1008.42 1008.99 1009.51 1010.71 1011.09 1011.56 1011.71 1012.74 1012.90 1012.95 1012.95 1013.31 1014.96
1021.69 1021.39 1020.90 1020.70 1020.49 1020.00 1019.44 1018.85 1018.14 1017.58 1016.54 1015.58 1015.39 1015.07 1015.42 1014.83 1015.01 1014.11 1012.51 1011.80 1011.01 1009.68 1009.34 1009.07 1008.62 1007.82 1007.77 1007.90 1007.61 1007.48 1007.12 1006.51 1006.24 1007.00 1008.06 1008.21 1009.00 1010.24 1011.84 1012.95 1013.46 1013.67 1014.11 1013.84 1014.09 1014.67 1015.73
1021.98 1021.66 1021.25 1020.89 1020.44 1019.98 1019.29 1018.64 1018.16 1017.59 1017.23 1017.12 1016.17 1015.12 1015.27 1015.05 1014.95 1013.87 1012.75 1011.83 1011.38 1010.65 1009.55 1009.13 1008.28 1007.59 1007.48 1007.25 1007.18 1006.34 1006.47 1005.72 1006.19 1006.60 1007.07 1008.00 1008.66 1010.67 1013.39 1015.02 1015.24 1016.23 1017.40 1016.97 1016.35 1016.30 1017.83
1021.97 1021.69 1021.39 1021.29 1020.92 1020.43 1019.78 1019.12 1018.40 1018.00 1017.71 1017.54 1017.05 1015.94 1015.75 1015.80 1016.03 1015.68 1015.33 1014.76 1014.30 1013.22 1012.08 1011.99 1010.21 1008.98 1009.28 1007.27 1007.08 1005.77 1006.42 1006.10 1006.11 1006.19 1006.32 1007.31 1008.78 1011.19 1014.50 1016.12 1017.40 1019.34 1020.42 1020.10 1019.54 1019.67 1021.07
1022.29 1021.95 1021.57 1021.31 1020.64 1020.03 1019.93 1019.20 1018.62 1017.89 1017.62 1017.89 1017.36 1016.88 1016.44 1017.31 1017.79 1018.73 1018.91 1018.67 1017.84 1016.79 1015.20 1014.24 1013.20 1013.58 1013.44 1011.83 1010.40 1009.10 1009.09 1008.19 1008.15 1009.75 1008.38 1007.67 1010.10 1014.40 1017.54 1019.05 1020.02 1022.78 1023.68 1023.33 1023.48 1024.29 1024.99
1022.42 1022.61 1022.30 1021.57 1021.12 1020.42 1020.13 1019.24 1018.81 1018.09 1017.41 1017.87 1018.44 1018.39 1018.63 1021.05 1021.22 1021.54 1022.67 1022.80 1021.86 1020.62 1019.06 1017.00 1016.82 1015.81 1015.40 1015.65 1015.85 1014.20 1013.73 1014.42 1014.77 1012.17 1012.24 1011.44 1013.34 1015.72 1020.37 1021.98 1022.33 1024.66 1026.56 1026.97 1027.47 1028.10 1028.93
1022.88 1022.55 1022.22 1021.97 1021.42 1020.63 1020.27 1020.00 1019.15 1018.44 1017.86 1018.77 1019.41 1019.71 1020.43 1024.74 1025.41 1026.05 1027.86 1027.27 1025.22 1024.31 1021.08 1019.81 1019.17 1018.08 1017.96 1018.34 1018.03 1017.16 1016.96 1017.67 1018.06 1016.80 1015.37 1014.71 1015.21 1016.74 1021.83 1023.02 1023.38 1026.38 1029.19 1029.76 1030.50 1030.88 1031.24
1023.40 1022.80 1022.70 1022.63 1022.01 1021.37 1020.48 1020.39 1019.86 1019.39 1019.10 1019.53 1021.05 1021.23 1022.41 1027.61 1028.54 1029.83 1030.16 1029.94 1028.07 1026.64 1024.95 1022.00 1020.86 1020.26 1020.37 1019.85 1019.14 1018.56 1018.56 1018.01 1018.65 1018.60 1017.76 1017.66 1018.09 1019.39 1022.64 1024.30 1026.42 1031.05 1030.87 1031.06 1032.19 1033.07 1033.29
1023.90 1023.15 1023.12 1023.02 1022.32 1021.94 1021.51 1021.07 1020.58 1020.53 1020.23 1021.26 1022.41 1022.73 1025.27 1029.94 1031.31 1031.48 1031.57 1031.31 1029.01 1027.43 1025.99 1024.15 1022.45 1022.19 1021.20 1020.53 1019.94 1019.49 1020.06 1019.91 1020.68 1021.08 1020.81 1020.36 1020.77 1022.44 1024.32 1027.17 1030.60 1031.36 1031.90 1032.13 1032.83 1034.47 1034.81
1024.36 1023.74 1023.72 1023.19 1022.82 1022.53 1022.40 1022.02 1021.75 1021.39 1021.50 1022.33 1023.80 1024.26 1025.89 1029.74 1032.91 1033.84 1033.37 1032.82 1031.95 1029.86 1027.23 1025.22 1023.25 1022.32 1021.56 1020.94 1021.41 1023.02 1024.66 1025.78 1025.67 1024.86 1024.43 1023.73 1023.61 1024.09 1026.55 1028.73 1031.73 1032.49 1032.86 1033.03 1033.62 1035.07 1035.70
1024.73 1024.44 1024.11 1024.08 1023.72 1023.21 1023.49 1023.16 1022.75 1022.63 1022.73 1023.25 1024.81 1025.40 1026.54 1031.30 1033.94 1034.19 1034.37 1034.01 1032.85 1031.79 1030.46 1027.94 1026.07 1024.17 1022.89 1023.18 1024.85 1026.81 1028.61 1029.73 1031.25 1032.40 1031.44 1030.14 1029.94 1030.42 1030.54 1031.91 1034.23 1034.45 1034.04 1033.87 1034.99 1036.81 1036.10
1025.33 1024.87 1024.71 1024.53 1024.29 1024.15 1024.14 1024.13 1023.85 1023.74 1023.71 1024.04 1026.13 1026.05 1026.54 1031.00 1033.49 1033.84 1033.81 1033.74 1033.08 1032.49 1031.75 1029.04 1027.94 1027.22 1026.77 1027.33 1028.95 1030.73 1032.08 1033.61 1034.93 1036.30 1036.09 1036.11 1036.01 1035.68 1034.86 1035.37 1036.60 1036.11 1035.54 1035.91 1036.97 1036.65 1036.66
1025.72 1025.45 1025.33 1025.27 1024.82 1024.97 1024.83 1024.75 1024.90 1024.96 1024.99 1024.93 1026.64 1027.26 1027.07 1029.18 1032.37 1032.35 1032.44 1032.24 1032.18 1032.05 1032.01 1030.87 1030.90 1030.81 1030.86 1030.87 1032.14 1033.40 1035.25 1036.46 1037.93 1039.08 1038.49 1039.13 1039.64 1039.66 1039.13 1038.74 1038.22 1037.57 1037.98 1037.25 1037.02 1037.07 1036.96
Thickness
5645 5645 5646 5647 5648 5649 5650 5649 5648 5647 5646 5646 5646 5646 5646 5645 5644 5643 5643 5644 5644 5644 5644 5644 5640 5636 5634 5634 5648 5656 5652 5647 5641 5635 5631 5626 5624 5614 5615 5607 5610 5608 5614 5618 5618 5619 5622
5642 5642 5643 5644 5645 5646 5645 5645 5644 5643 5642 5641 5640 5640 5639 5638 5639 5639 5639 5639 5640 5641 5641 5639 5636 5633 5626 5623 5651 5645 5644 5638 5630 5625 5619 5615 5613 5609 5605 5603 5599 5604 5603 5606 5605 5608 5609
5644 5643 5642 5641 5640 5640 5640 5640 5639 5638 5636 5635 5634 5632 5631 5630 5630 5631 5631 5632 5633 5635 5634 5633 5631 5622 5617 5632 5637 5633 5626 5623 5618 5615 5611 5607 5606 5599 5593 5591 5593 5593 5591 5589 5591 5600 5600
5642 5641 5641 5639 5638 5636 5635 5634 5633 5631 5629 5628 5627 5626 5625 5624 5624 5624 5624 5626 5627 5629 5627 5626 5620 5611 5610 5630 5625 5620 5614 5609 5604 5601 5599 5597 5591 5585 5581 5580 5579 5575 5574 5579 5595 5589 5593
5636 5636 5634 5633 5632 5631 5630 5629 5628 5625 5623 5622 5620 5618 5617 5617 5617 5619 5620 5622 5626 5625 5622 5615 5606 5600 5605 5620 5611 5607 5601 5598 5592 5587 5584 5582 5578 5570 5566 5560 5559 5549 5569 5558 5572 5577 5583
5629 5630 5629 5627 5626 5625 5624 5622 5621 5620 5619 5617 5615 5613 5611 5610 5608 5608 5611 5619 5626 5616 5610 5602 5595 5588 5599 5603 5598 5592 5587 5580 5577 5572 5566 5562 5547 5547 5539 5544 5561 5568 5539 5540 5554 5562 5559
5626 5625 5623 5623 5623 5624 5624 5622 5619 5615 5613 5611 5609 5605 5603 5602 5601 5600 5601 5603 5603 5601 5596 5586 5595 5588 5588 5586 5581 5577 5570 5564 5559 5556 5549 5544 5535 5539 5554 5546 5555 5548 5540 5543 5542 5545 5547
5623 5621 5621 5619 5621 5620 5617 5615 5612 5610 5608 5605 5603 5599 5596 5594 5591 5589 5584 5576 5571 5560 5568 5576 5582 5573 5573 5567 5556 5560 5557 5549 5545 5543 5532 5521 5521 5547 5538 5529 5525 5527 5527 5528 5529 5531 5532
5620 5620 5617 5615 5615 5613 5610 5609 5608 5605 5603 5598 5594 5589 5587 5586 5584 5578 5566 5562 5552 5544 5543 5573 5565 5564 5563 5551 5544 5546 5542 5540 5536 5525 5517 5516 5539 5532 5520 5511 5508 5508 5508 5517 5520 5514 5515
5617 5614 5614 5612 5609 5607 5603 5599 5597 5595 5592 5588 5586 5581 5576 5574 5570 5559 5553 5546 5537 5529 5531 5564 5561 5555 5545 5536 5536 5537 5532 5529 5519 5516 5508 5503 5517 5516 5509 5508 5508 5499 5511 5512 5506 5491 5492
5609 5608 5605 5605 5601 5598 5596 5593 5588 5589 5586 5580 5577 5571 5564 5557 5556 5549 5539 5529 5519 5506 5487 5556 5547 5541 5533 5521 5525 5524 5516 5513 5509 5505 5501 5519 5508 5504 5501 5511 5501 5503 5501 5495 5486 5461 5454
5603 5600 5598 5595 5594 5594 5590 5585 5585 5582 5577 5572 5567 5560 5553 5549 5539 5534 5524 5511 5501 5496 5491 5536 5530 5524 5519 5513 5516 5503 5500 5497 5491 5487 5484 5489 5488 5494 5497 5497 5494 5488 5484 5466 5448 5451 5439
5596 5591 5590 5588 5586 5584 5580 5578 5576 5574 5568 5563 5557 5549 5540 5532 5526 5515 5504 5494 5497 5486 5527 5529 5518 5506 5503 5503 5501 5489 5483 5473 5473 5472 5470 5481 5482 5483 5485 5483 5477 5478 5461 5422 5425 5421 5455
5589 5585 5583 5580 5578 5575 5570 5568 5565 5562 5559 5555 5549 5545 5533 5524 5514 5499 5487 5483 5480 5515 5508 5513 5500 5488 5483 5487 5484 5476 5471 5463 5463 5467 5445 5454 5472 5471 5472 5477 5473 5457 5455 5434 5422 5418 5449
5582 5577 5575 5572 5565 5560 5557 5551 5548 5546 5542 5542 5540 5534 5525 5515 5502 5482 5471 5476 5502 5496 5500 5494 5479 5464 5467 5469 5463 5460 5450 5451 5466 5452 5453 5417 5443 5455 5457 5453 5458 5440 5427 5439 5416 5385 5436
5572 5567 5561 5557 5551 5546 5541 5539 5537 5533 5530 5524 5524 5523 5520 5504 5486 5469 5464 5484 5478 5489 5486 5471 5460 5459 5444 5457 5441 5436 5444 5454 5454 5448 5447 5440 5425 5439 5431 5435 5423 5429 5428 5418 5422 5426 5396
5557 5554 5550 5543 5537 5532 5527 5522 5519 5514 5511 5503 5503 5504 5497 5484 5470 5457 5463 5466 5465 5468 5465 5452 5449 5447 5444 5442 5443 5433 5440 5450 5446 5438 5433 5420 5423 5410 5416 5407 5419 5408 5407 5413 5416 5424 5410
5541 5536 5533 5527 5521 5515 5510 5506 5500 5494 5494 5487 5484 5484 5465 5459 5454 5441 5450 5441 5445 5449 5448 5442 5437 5446 5440 5441 5439 5434 5444 5450 5445 5432 5419 5421 5423 5403 5403 5359 5344 5365 5391 5413 5417 5403 5403
5527 5522 5519 5514 5509 5504 5500 5493 5485 5477 5471 5462 5464 5470 5446 5438 5436 5431 5437 5431 5424 5422 5436 5430 5430 5432 5443 5436 5433 5433 5427 5443 5437 5435 5428 5420 5423 5420 5392 5375 5364 5357 5316 5328 5347 5368 5383
5518 5513 5507 5498 5491 5485 5479 5473 5467 5458 5449 5439 5434 5438 5418 5409 5395 5391 5392 5388 5372 5380 5395 5375 5395 5403 5393 5428 5426 5438 5430 5430 5429 5438 5446 5425 5419 5414 5413 5368 5328 5307 5282 5293 5320 5373 5331
5505 5499 5492 5484 5478 5476 5464 5460 5453 5445 5434 5420 5416 5406 5402 5385 5387 5356 5339 5329 5331 5328 5346 5345 5359 5334 5329 5363 5371 5400 5386 5409 5387 5364 5400 5416 5412 5300 5282 5277 5273 5254 5251 5257 5254 5250 5286
5492 5480 5473 5470 5463 5460 5452 5443 5431 5428 5419 5406 5392 5390 5381 5320 5337 5315 5280 5271 5284 5282 5292 5300 5300 5307 5301 5291 5289 5318 5318 5294 5295 5327 5332 5350 5324 5295 5255 5254 5259 5238 5226 5225 5219 5218 5213
5475 5469 5464 5456 5452 5445 5435 5425 5418 5412 5405 5387 5372 5365 5358 5288 5270 5264 5238 5235 5248 5238 5262 5267 5263 5276 5268 5259 5262 5269 5275 5269 5266 5277 5291 5316 5337 5306 5238 5248 5265 5227 5199 5197 5189 5186 5193
5461 5458 5449 5439 5433 5427 5420 5410 5404 5398 5390 5380 5358 5352 5334 5252 5237 5229 5205 5196 5208 5201 5222 5239 5236 5237 5239 5240 5250 5258 5262 5269 5265 5265 5270 5277 5300 5273 5240 5235 5255 5164 5182 5181 5164 5158 5162
5447 5444 5434 5423 5418 5410 5404 5399 5394 5385 5379 5363 5344 5336 5294 5222 5206 5209 5202 5180 5198 5198 5209 5221 5231 5219 5221 5225 5245 5264 5255 5262 5251 5243 5239 5248 5262 5237 5224 5180 5157 5167 5163 5166 5162 5140 5136
5434 5429 5416 5411 5403 5398 5393 5388 5381 5375 5364 5352 5329 5316 5291 5249 5223 5198 5182 5172 5182 5180 5202 5221 5222 5217 5222 5241 5238 5209 5176 5181 5192 5200 5216 5214 5224 5235 5215 5199 5182 5154 5149 5148 5144 5148 5120
5421 5410 5404 5395 5390 5388 5381 5374 5369 5361 5351 5340 5316 5308 5283 5230 5202 5192 5185 5172 5172 5168 5164 5183 5197 5206 5219 5230 5210 5192 5168 5155 5125 5108 5126 5147 5135 5143 5170 5146 5135 5126 5129 5132 5138 5124 5110
5405 5400 5393 5388 5384 5377 5370 5363 5357 5347 5338 5330 5302 5298 5282 5232 5204 5193 5185 5176 5177 5172 5170 5191 5194 5195 5193 5177 5175 5154 5135 5115 5108 5078 5084 5093 5084 5083 5110 5107 5118 5106 5121 5120 5099 5087 5095
5397 5392 5387 5381 5376 5369 5363 5355 5343 5333 5324 5317 5294 5287 5278 5255 5220 5207 5200 5195 5187 5180 5170 5169 5170 5162 5163 5152 5134 5128 5114 5090 5035 5080 5079 5093 5068 5071 5080 5088 5071 5069 5083 5079 5076 5085 5087